Time,TemperatureF,DewpointF,PressureIn,WindDirection,WindDirectionDegrees,WindSpeedMPH,WindSpeedGustMPH,Humidity,HourlyPrecipIn,Conditions,Clouds,dailyrainin,SoftwareType,DateUTC
2013-03-23 00:00:00,68.3,64.6,29.92,South,173,0.0,1.0,88,0.00,,,0.00,Wunderground v.1.15,2013-03-23 04:00:00,
2013-03-23 00:04:00,68.3,64.9,29.92,South,188,0.0,1.0,89,0.00,,,0.00,Wunderground v.1.15,2013-03-23 04:04:00,
2013-03-23 00:06:00,68.3,64.9,29.92,South,188,0.0,1.0,89,0.00,,,0.00,Wunderground v.1.15,2013-03-23 04:06:00,
2013-03-23 00:12:00,68.1,64.7,29.92,SSE,160,0.0,0.0,89,0.00,,,0.00,Wunderground v.1.15,2013-03-23 04:12:00,
2013-03-23 00:17:00,68.1,65.1,29.93,East,84,0.0,1.0,90,0.00,,,0.00,Wunderground v.1.15,2013-03-23 04:17:00,
2013-03-23 00:23:00,68.1,65.4,29.93,SE,143,0.0,0.0,91,0.00,,,0.00,Wunderground v.1.15,2013-03-23 04:23:00,
2013-03-23 00:29:00,68.1,65.4,29.93,SE,142,0.0,0.0,91,0.00,,,0.00,Wunderground v.1.15,2013-03-23 04:29:00,
2013-03-23 00:34:00,68.1,65.4,29.93,SE,134,0.0,0.0,91,0.00,,,0.00,Wunderground v.1.15,2013-03-23 04:34:00,
2013-03-23 00:39:00,68.1,65.7,29.93,SE,134,0.0,0.0,92,0.00,,,0.00,Wunderground v.1.15,2013-03-23 04:39:00,
2013-03-23 00:45:00,68.1,65.7,29.92,SE,134,0.0,0.0,92,0.00,,,0.00,Wunderground v.1.15,2013-03-23 04:45:00,
2013-03-23 00:50:00,68.3,65.9,29.92,SE,134,0.0,0.0,92,0.00,,,0.00,Wunderground v.1.15,2013-03-23 04:50:00,
2013-03-23 00:56:00,68.3,65.9,29.92,SE,134,0.0,0.0,92,0.00,,,0.00,Wunderground v.1.15,2013-03-23 04:56:00,
2013-03-23 01:01:00,68.3,65.9,29.92,SE,133,0.0,0.0,92,0.00,,,0.00,Wunderground v.1.15,2013-03-23 05:01:00,
2013-03-23 01:06:00,68.1,65.7,29.92,SE,133,0.0,0.0,92,0.00,,,0.00,Wunderground v.1.15,2013-03-23 05:06:00,
2013-03-23 01:11:00,68.1,66.0,29.92,SE,133,0.0,0.0,93,0.00,,,0.00,Wunderground v.1.15,2013-03-23 05:11:00,
2013-03-23 01:17:00,68.1,66.0,29.93,SE,129,0.0,2.0,93,0.00,,,0.00,Wunderground v.1.15,2013-03-23 05:17:00,
2013-03-23 01:22:00,68.1,66.0,29.93,SE,129,0.0,0.0,93,0.00,,,0.00,Wunderground v.1.15,2013-03-23 05:22:00,
2013-03-23 01:27:00,67.9,66.1,29.93,SE,129,0.0,0.0,94,0.00,,,0.00,Wunderground v.1.15,2013-03-23 05:27:00,
2013-03-23 01:32:00,67.9,66.1,29.93,SE,129,0.0,0.0,94,0.00,,,0.00,Wunderground v.1.15,2013-03-23 05:32:00,
2013-03-23 01:38:00,67.9,66.1,29.93,SE,129,0.0,0.0,94,0.00,,,0.00,Wunderground v.1.15,2013-03-23 05:38:00,
2013-03-23 01:43:00,67.8,66.3,29.93,SE,129,0.0,1.0,95,0.00,,,0.00,Wunderground v.1.15,2013-03-23 05:43:00,
2013-03-23 01:48:00,67.8,66.3,29.93,SE,129,0.0,1.0,95,0.00,,,0.00,Wunderground v.1.15,2013-03-23 05:48:00,
2013-03-23 01:54:00,67.8,66.3,29.93,SE,129,0.0,0.0,95,0.00,,,0.00,Wunderground v.1.15,2013-03-23 05:54:00,
2013-03-23 01:59:00,67.6,66.1,29.92,ESE,110,0.0,0.0,95,0.00,,,0.00,Wunderground v.1.15,2013-03-23 05:59:00,
2013-03-23 02:04:00,67.6,66.1,29.92,ESE,109,0.0,0.0,95,0.00,,,0.00,Wunderground v.1.15,2013-03-23 06:04:00,
2013-03-23 02:09:00,67.4,66.2,29.92,East,97,0.0,1.0,96,0.00,,,0.00,Wunderground v.1.15,2013-03-23 06:09:00,
2013-03-23 02:14:00,67.4,66.2,29.92,ESE,120,0.0,1.0,96,0.00,,,0.00,Wunderground v.1.15,2013-03-23 06:14:00,
2013-03-23 02:19:00,67.4,66.2,29.92,ESE,119,0.0,1.0,96,0.00,,,0.00,Wunderground v.1.15,2013-03-23 06:19:00,
2013-03-23 02:24:00,67.4,66.2,29.92,ESE,119,0.0,0.0,96,0.00,,,0.00,Wunderground v.1.15,2013-03-23 06:24:00,
2013-03-23 02:29:00,67.3,66.1,29.92,ESE,118,0.0,0.0,96,0.00,,,0.00,Wunderground v.1.15,2013-03-23 06:29:00,
2013-03-23 02:34:00,67.3,66.1,29.92,ESE,117,0.0,0.0,96,0.00,,,0.00,Wunderground v.1.15,2013-03-23 06:34:00,
2013-03-23 02:39:00,67.3,66.1,29.92,ESE,117,0.0,1.0,96,0.00,,,0.00,Wunderground v.1.15,2013-03-23 06:39:00,
2013-03-23 02:44:00,67.3,66.1,29.91,ESE,117,0.0,0.0,96,0.00,,,0.00,Wunderground v.1.15,2013-03-23 06:44:00,
2013-03-23 02:49:00,67.3,66.1,29.91,ESE,117,0.0,0.0,96,0.00,,,0.00,Wunderground v.1.15,2013-03-23 06:49:00,
2013-03-23 02:55:00,67.3,66.1,29.91,ESE,117,0.0,0.0,96,0.00,,,0.00,Wunderground v.1.15,2013-03-23 06:55:00,
2013-03-23 03:00:00,67.3,66.4,29.90,ESE,117,0.0,0.0,97,0.00,,,0.00,Wunderground v.1.15,2013-03-23 07:00:00,
2013-03-23 03:05:00,67.1,66.2,29.90,ESE,117,0.0,0.0,97,0.00,,,0.00,Wunderground v.1.15,2013-03-23 07:05:00,
2013-03-23 03:10:00,67.1,66.2,29.90,ESE,117,0.0,0.0,97,0.00,,,0.00,Wunderground v.1.15,2013-03-23 07:10:00,
2013-03-23 03:15:00,66.9,66.0,29.90,ESE,117,0.0,0.0,97,0.00,,,0.00,Wunderground v.1.15,2013-03-23 07:15:00,
2013-03-23 03:20:00,66.9,66.0,29.90,ESE,117,0.0,0.0,97,0.00,,,0.00,Wunderground v.1.15,2013-03-23 07:20:00,
2013-03-23 03:25:00,66.9,66.0,29.90,ESE,117,0.0,0.0,97,0.00,,,0.00,Wunderground v.1.15,2013-03-23 07:25:00,
2013-03-23 03:30:00,66.9,66.0,29.89,ESE,117,0.0,0.0,97,0.00,,,0.00,Wunderground v.1.15,2013-03-23 07:30:00,
2013-03-23 03:35:00,66.8,65.9,29.89,ESE,117,0.0,0.0,97,0.00,,,0.00,Wunderground v.1.15,2013-03-23 07:35:00,
2013-03-23 03:40:00,66.9,66.0,29.89,ESE,117,0.0,0.0,97,0.00,,,0.00,Wunderground v.1.15,2013-03-23 07:40:00,
2013-03-23 03:45:00,67.1,66.5,29.89,SE,128,0.0,1.0,98,0.00,,,0.00,Wunderground v.1.15,2013-03-23 07:45:00,
2013-03-23 03:51:00,67.3,66.7,29.89,SE,128,0.0,0.0,98,0.00,,,0.00,Wunderground v.1.15,2013-03-23 07:51:00,
2013-03-23 03:55:00,67.3,66.7,29.89,SE,128,0.0,0.0,98,0.00,,,0.00,Wunderground v.1.15,2013-03-23 07:55:00,
2013-03-23 04:00:00,67.3,66.7,29.89,SE,128,0.0,0.0,98,0.00,,,0.00,Wunderground v.1.15,2013-03-23 08:00:00,
2013-03-23 04:05:00,67.4,66.8,29.89,SE,128,0.0,1.0,98,0.00,,,0.00,Wunderground v.1.15,2013-03-23 08:05:00,
2013-03-23 04:10:00,67.4,66.8,29.89,SE,128,0.0,0.0,98,0.00,,,0.00,Wunderground v.1.15,2013-03-23 08:10:00,
2013-03-23 04:16:00,67.4,66.8,29.89,SE,128,0.0,0.0,98,0.00,,,0.00,Wunderground v.1.15,2013-03-23 08:16:00,
2013-03-23 04:21:00,67.4,66.8,29.89,SE,128,0.0,0.0,98,0.00,,,0.00,Wunderground v.1.15,2013-03-23 08:21:00,
2013-03-23 05:20:00,67.8,67.5,29.87,SE,128,0.0,0.0,99,0.00,,,0.00,Wunderground v.1.15,2013-03-23 09:20:00,
2013-03-23 05:25:00,67.8,67.5,29.87,SE,128,0.0,0.0,99,0.00,,,0.00,Wunderground v.1.15,2013-03-23 09:25:00,
2013-03-23 05:30:00,67.8,67.5,29.86,SE,128,0.0,0.0,99,0.00,,,0.00,Wunderground v.1.15,2013-03-23 09:30:00,
2013-03-23 05:35:00,67.8,67.5,29.86,SE,128,0.0,0.0,99,0.00,,,0.00,Wunderground v.1.15,2013-03-23 09:35:00,
2013-03-23 05:40:00,67.8,67.5,29.86,SE,128,0.0,0.0,99,0.00,,,0.00,Wunderground v.1.15,2013-03-23 09:40:00,
2013-03-23 05:45:00,67.8,67.5,29.86,SE,128,0.0,0.0,99,0.00,,,0.00,Wunderground v.1.15,2013-03-23 09:45:00,
2013-03-23 05:50:00,67.9,67.6,29.86,SE,128,0.0,0.0,99,0.00,,,0.00,Wunderground v.1.15,2013-03-23 09:50:00,
2013-03-23 05:55:00,67.9,67.6,29.86,SE,128,0.0,0.0,99,0.00,,,0.00,Wunderground v.1.15,2013-03-23 09:55:00,
2013-03-23 06:00:00,67.9,67.6,29.86,SE,128,0.0,0.0,99,0.00,,,0.00,Wunderground v.1.15,2013-03-23 10:00:00,
2013-03-23 06:06:00,67.9,67.6,29.86,SE,128,0.0,0.0,99,0.00,,,0.00,Wunderground v.1.15,2013-03-23 10:06:00,
2013-03-23 06:11:00,67.9,67.6,29.86,SE,128,0.0,0.0,99,0.00,,,0.00,Wunderground v.1.15,2013-03-23 10:11:00,
2013-03-23 06:16:00,67.9,67.6,29.86,SE,128,0.0,0.0,99,0.00,,,0.00,Wunderground v.1.15,2013-03-23 10:16:00,
2013-03-23 06:21:00,67.9,67.6,29.86,SE,128,0.0,0.0,99,0.00,,,0.00,Wunderground v.1.15,2013-03-23 10:21:00,
2013-03-23 06:26:00,67.9,67.6,29.86,SE,128,0.0,0.0,99,0.00,,,0.00,Wunderground v.1.15,2013-03-23 10:26:00,
2013-03-23 06:31:00,67.9,67.6,29.87,SE,128,0.0,0.0,99,0.00,,,0.00,Wunderground v.1.15,2013-03-23 10:31:00,
2013-03-23 06:37:00,67.8,67.5,29.87,SE,128,0.0,0.0,99,0.00,,,0.00,Wunderground v.1.15,2013-03-23 10:37:00,
2013-03-23 06:42:00,67.8,67.5,29.87,SE,128,0.0,0.0,99,0.00,,,0.00,Wunderground v.1.15,2013-03-23 10:42:00,
2013-03-23 06:47:00,67.8,67.5,29.88,SE,128,0.0,0.0,99,0.00,,,0.00,Wunderground v.1.15,2013-03-23 10:47:00,
2013-03-23 06:52:00,67.6,67.3,29.88,SE,128,0.0,0.0,99,0.00,,,0.00,Wunderground v.1.15,2013-03-23 10:52:00,
2013-03-23 06:57:00,67.4,67.1,29.88,SE,128,0.0,0.0,99,0.00,,,0.00,Wunderground v.1.15,2013-03-23 10:57:00,
2013-03-23 07:02:00,67.4,67.1,29.89,SE,128,0.0,0.0,99,0.00,,,0.00,Wunderground v.1.15,2013-03-23 11:02:00,
2013-03-23 07:07:00,67.4,67.1,29.89,SE,128,0.0,0.0,99,0.00,,,0.00,Wunderground v.1.15,2013-03-23 11:07:00,
2013-03-23 07:12:00,67.4,67.1,29.89,SE,128,0.0,0.0,99,0.00,,,0.00,Wunderground v.1.15,2013-03-23 11:12:00,
2013-03-23 07:17:00,67.4,67.1,29.89,SE,128,0.0,0.0,99,0.00,,,0.00,Wunderground v.1.15,2013-03-23 11:17:00,
2013-03-23 07:22:00,67.4,67.1,29.89,SE,128,0.0,0.0,99,0.00,,,0.00,Wunderground v.1.15,2013-03-23 11:22:00,
2013-03-23 07:27:00,67.6,67.3,29.89,SE,128,0.0,0.0,99,0.00,,,0.00,Wunderground v.1.15,2013-03-23 11:27:00,
2013-03-23 07:32:00,67.6,67.3,29.90,SE,128,0.0,0.0,99,0.00,,,0.00,Wunderground v.1.15,2013-03-23 11:32:00,
2013-03-23 07:37:00,67.6,67.3,29.90,SE,128,0.0,0.0,99,0.00,,,0.00,Wunderground v.1.15,2013-03-23 11:37:00,
2013-03-23 07:42:00,67.6,67.3,29.90,SE,128,0.0,0.0,99,0.00,,,0.00,Wunderground v.1.15,2013-03-23 11:42:00,
2013-03-23 07:47:00,67.8,67.5,29.89,SSW,205,0.0,4.0,99,0.00,,,0.00,Wunderground v.1.15,2013-03-23 11:47:00,
2013-03-23 07:52:00,68.1,67.8,29.89,SSW,205,0.0,0.0,99,0.00,,,0.00,Wunderground v.1.15,2013-03-23 11:52:00,
2013-03-23 07:57:00,68.3,68.0,29.89,SSW,205,0.0,0.0,99,0.00,,,0.00,Wunderground v.1.15,2013-03-23 11:57:00,
2013-03-23 08:02:00,68.4,68.1,29.89,SSW,205,0.0,0.0,99,0.00,,,0.00,Wunderground v.1.15,2013-03-23 12:02:00,
2013-03-23 08:07:00,68.6,68.3,29.89,SSW,205,0.0,0.0,99,0.00,,,0.00,Wunderground v.1.15,2013-03-23 12:07:00,
2013-03-23 08:12:00,68.8,68.5,29.89,SSW,205,0.0,0.0,99,0.00,,,0.00,Wunderground v.1.15,2013-03-23 12:12:00,
2013-03-23 08:17:00,68.8,68.5,29.90,SSW,205,0.0,0.0,99,0.00,,,0.00,Wunderground v.1.15,2013-03-23 12:17:00,
2013-03-23 08:22:00,68.9,68.6,29.90,SSW,200,0.0,0.0,99,0.00,,,0.00,Wunderground v.1.15,2013-03-23 12:22:00,
2013-03-23 08:27:00,68.9,68.9,29.90,SSW,201,0.0,1.0,100,0.00,,,0.00,Wunderground v.1.15,2013-03-23 12:27:00,
2013-03-23 08:32:00,68.9,68.9,29.89,SSW,209,0.0,0.0,100,0.00,,,0.00,Wunderground v.1.15,2013-03-23 12:32:00,
2013-03-23 08:37:00,69.1,69.1,29.89,SSW,209,0.0,0.0,100,0.00,,,0.00,Wunderground v.1.15,2013-03-23 12:37:00,
2013-03-23 08:42:00,69.3,69.3,29.89,SW,236,0.0,2.0,100,0.00,,,0.00,Wunderground v.1.15,2013-03-23 12:42:00,
2013-03-23 08:47:00,69.6,69.6,29.90,SSW,196,0.0,2.0,100,0.00,,,0.00,Wunderground v.1.15,2013-03-23 12:47:00,
2013-03-23 08:52:00,69.8,69.8,29.90,South,177,0.0,0.0,100,0.00,,,0.00,Wunderground v.1.15,2013-03-23 12:52:00,
2013-03-23 08:57:00,69.9,69.9,29.90,South,177,0.0,0.0,100,0.00,,,0.00,Wunderground v.1.15,2013-03-23 12:57:00,
2013-03-23 09:02:00,70.1,70.1,29.89,South,179,0.0,1.0,100,0.00,,,0.00,Wunderground v.1.15,2013-03-23 13:02:00,
2013-03-23 09:07:00,70.3,70.3,29.89,SSE,167,0.0,1.0,100,0.00,,,0.00,Wunderground v.1.15,2013-03-23 13:07:00,
2013-03-23 09:13:00,70.6,70.6,29.89,SSW,197,0.0,0.0,100,0.00,,,0.00,Wunderground v.1.15,2013-03-23 13:13:00,
2013-03-23 09:18:00,70.9,70.9,29.90,South,181,0.0,4.0,100,0.00,,,0.00,Wunderground v.1.15,2013-03-23 13:18:00,
2013-03-23 09:23:00,71.1,71.1,29.90,South,183,0.0,4.0,100,0.00,,,0.00,Wunderground v.1.15,2013-03-23 13:23:00,
2013-03-23 09:28:00,71.6,71.6,29.90,SSE,168,0.0,4.0,100,0.00,,,0.00,Wunderground v.1.15,2013-03-23 13:28:00,
2013-03-23 09:33:00,71.8,71.8,29.90,SSW,212,0.0,1.0,100,0.00,,,0.00,Wunderground v.1.15,2013-03-23 13:33:00,
2013-03-23 09:38:00,72.0,72.0,29.90,SSW,193,3.0,4.0,100,0.00,,,0.00,Wunderground v.1.15,2013-03-23 13:38:00,
2013-03-23 09:43:00,72.1,72.1,29.90,South,183,2.0,3.0,100,0.00,,,0.00,Wunderground v.1.15,2013-03-23 13:43:00,
2013-03-23 09:48:00,72.5,72.5,29.89,SSE,154,0.0,4.0,100,0.00,,,0.00,Wunderground v.1.15,2013-03-23 13:48:00,
2013-03-23 09:53:00,72.5,72.5,29.89,SSW,197,4.0,7.0,100,0.00,,,0.00,Wunderground v.1.15,2013-03-23 13:53:00,
2013-03-23 09:58:00,72.5,72.2,29.89,SSW,200,0.0,7.0,99,0.00,,,0.00,Wunderground v.1.15,2013-03-23 13:58:00,
2013-03-23 10:03:00,72.7,72.7,29.89,SW,221,0.0,2.0,100,0.00,,,0.00,Wunderground v.1.15,2013-03-23 14:03:00,
2013-03-23 10:08:00,72.8,72.5,29.89,SSW,212,0.0,7.0,99,0.00,,,0.00,Wunderground v.1.15,2013-03-23 14:08:00,
2013-03-23 10:13:00,73.0,72.7,29.89,South,190,0.0,1.0,99,0.00,,,0.00,Wunderground v.1.15,2013-03-23 14:13:00,
2013-03-23 10:18:00,73.2,72.9,29.89,WSW,238,0.0,4.0,99,0.00,,,0.00,Wunderground v.1.15,2013-03-23 14:18:00,
2013-03-23 10:23:00,73.5,73.2,29.89,South,184,0.0,4.0,99,0.00,,,0.00,Wunderground v.1.15,2013-03-23 14:23:00,
2013-03-23 10:28:00,73.9,73.3,29.89,SSE,168,2.0,6.0,98,0.00,,,0.00,Wunderground v.1.15,2013-03-23 14:28:00,
2013-03-23 10:33:00,74.0,73.4,29.88,SSW,203,0.0,9.0,98,0.00,,,0.00,Wunderground v.1.15,2013-03-23 14:33:00,
2013-03-23 10:38:00,74.2,73.3,29.88,South,188,0.0,9.0,97,0.00,,,0.00,Wunderground v.1.15,2013-03-23 14:38:00,
2013-03-23 10:43:00,74.7,73.8,29.88,SSW,202,0.0,5.0,97,0.00,,,0.00,Wunderground v.1.15,2013-03-23 14:43:00,
2013-03-23 10:48:00,75.1,73.6,29.88,WSW,242,0.0,6.0,95,0.00,,,0.00,Wunderground v.1.15,2013-03-23 14:48:00,
2013-03-23 10:53:00,75.4,73.6,29.88,South,186,2.0,7.0,94,0.00,,,0.00,Wunderground v.1.15,2013-03-23 14:53:00,
2013-03-23 10:58:00,75.8,73.3,29.87,SW,223,0.0,7.0,92,0.00,,,0.00,Wunderground v.1.15,2013-03-23 14:58:00,
2013-03-23 11:04:00,76.3,73.1,29.87,South,180,0.0,3.0,90,0.00,,,0.00,Wunderground v.1.15,2013-03-23 15:04:00,
2013-03-23 11:09:00,77.0,72.8,29.87,SSE,158,0.0,10.0,87,0.00,,,0.00,Wunderground v.1.15,2013-03-23 15:09:00,
2013-03-23 11:14:00,77.7,72.8,29.87,South,177,4.0,8.0,85,0.00,,,0.00,Wunderground v.1.15,2013-03-23 15:14:00,
2013-03-23 11:19:00,78.1,72.2,29.87,South,181,0.0,10.0,82,0.00,,,0.00,Wunderground v.1.15,2013-03-23 15:19:00,
2013-03-23 11:24:00,78.6,72.6,29.87,South,187,5.0,9.0,82,0.00,,,0.00,Wunderground v.1.15,2013-03-23 15:24:00,
2013-03-23 11:29:00,79.0,71.9,29.86,WSW,241,0.0,9.0,79,0.00,,,0.00,Wunderground v.1.15,2013-03-23 15:29:00,
2013-03-23 11:34:00,79.6,72.5,29.86,South,183,4.0,7.0,79,0.00,,,0.00,Wunderground v.1.15,2013-03-23 15:34:00,
2013-03-23 11:39:00,79.9,72.0,29.86,SSE,168,1.0,7.0,77,0.00,,,0.00,Wunderground v.1.15,2013-03-23 15:39:00,
2013-03-23 11:44:00,80.3,71.6,29.86,SSE,165,0.0,9.0,75,0.00,,,0.00,Wunderground v.1.15,2013-03-23 15:44:00,
2013-03-23 11:50:00,81.1,72.0,29.86,SSW,194,0.0,2.0,74,0.00,,,0.00,Wunderground v.1.15,2013-03-23 15:50:00,
2013-03-23 11:55:00,81.6,72.1,29.86,SSE,165,4.0,7.0,73,0.00,,,0.00,Wunderground v.1.15,2013-03-23 15:55:00,
2013-03-23 12:00:00,82.2,71.9,29.86,SSW,210,3.0,4.0,71,0.00,,,0.00,Wunderground v.1.15,2013-03-23 16:00:00,
2013-03-23 12:05:00,82.2,71.4,29.86,WSW,250,2.0,4.0,70,0.00,,,0.00,Wunderground v.1.15,2013-03-23 16:05:00,
2013-03-23 12:10:00,82.4,72.9,29.86,SSE,163,3.0,5.0,73,0.00,,,0.00,Wunderground v.1.15,2013-03-23 16:10:00,
2013-03-23 12:15:00,82.4,70.3,29.85,South,191,0.0,14.0,67,0.00,,,0.00,Wunderground v.1.15,2013-03-23 16:15:00,
2013-03-23 12:20:00,82.6,71.0,29.85,South,170,3.0,8.0,68,0.00,,,0.00,Wunderground v.1.15,2013-03-23 16:20:00,
2013-03-23 12:25:00,82.6,70.1,29.85,SSW,209,1.0,13.0,66,0.00,,,0.00,Wunderground v.1.15,2013-03-23 16:25:00,
2013-03-23 12:30:00,82.6,71.4,29.85,South,174,3.0,5.0,69,0.00,,,0.00,Wunderground v.1.15,2013-03-23 16:30:00,
2013-03-23 12:35:00,83.0,70.9,29.85,South,186,4.0,6.0,67,0.00,,,0.00,Wunderground v.1.15,2013-03-23 16:35:00,
2013-03-23 12:40:00,83.4,70.8,29.85,SW,231,2.0,6.0,66,0.00,,,0.00,Wunderground v.1.15,2013-03-23 16:40:00,
2013-03-23 12:45:00,84.1,71.5,29.84,SSW,198,0.0,12.0,66,0.00,,,0.00,Wunderground v.1.15,2013-03-23 16:45:00,
2013-03-23 12:50:00,84.7,71.6,29.84,SSW,200,0.0,1.0,65,0.00,,,0.00,Wunderground v.1.15,2013-03-23 16:50:00,
2013-03-23 12:55:00,84.9,71.4,29.84,WSW,245,0.0,8.0,64,0.00,,,0.00,Wunderground v.1.15,2013-03-23 16:55:00,
2013-03-23 13:00:00,84.7,70.7,29.84,SSW,203,7.0,7.0,63,0.00,,,0.00,Wunderground v.1.15,2013-03-23 17:00:00,
2013-03-23 13:05:00,84.5,71.0,29.84,SSE,162,0.0,7.0,64,0.00,,,0.00,Wunderground v.1.15,2013-03-23 17:05:00,
2013-03-23 13:10:00,84.3,71.2,29.84,SW,231,0.0,2.0,65,0.00,,,0.00,Wunderground v.1.15,2013-03-23 17:10:00,
2013-03-23 13:15:00,84.5,70.5,29.83,South,181,1.0,5.0,63,0.00,,,0.00,Wunderground v.1.15,2013-03-23 17:15:00,
2013-03-23 13:20:00,84.9,70.9,29.83,WSW,239,0.0,1.0,63,0.00,,,0.00,Wunderground v.1.15,2013-03-23 17:20:00,
2013-03-23 13:25:00,85.5,71.5,29.83,SW,233,0.0,9.0,63,0.00,,,0.00,Wunderground v.1.15,2013-03-23 17:25:00,
2013-03-23 13:30:00,86.5,71.5,29.82,South,184,0.0,4.0,61,0.00,,,0.00,Wunderground v.1.15,2013-03-23 17:30:00,
2013-03-23 13:35:00,87.4,69.8,29.82,SW,217,0.0,9.0,56,0.00,,,0.00,Wunderground v.1.15,2013-03-23 17:35:00,
2013-03-23 13:40:00,87.8,70.1,29.82,South,191,0.0,5.0,56,0.00,,,0.00,Wunderground v.1.15,2013-03-23 17:40:00,
2013-03-23 13:45:00,87.6,68.9,29.82,SW,229,0.0,10.0,54,0.00,,,0.00,Wunderground v.1.15,2013-03-23 17:45:00,
2013-03-23 13:50:00,87.4,69.3,29.82,SSW,213,0.0,2.0,55,0.00,,,0.00,Wunderground v.1.15,2013-03-23 17:50:00,
2013-03-23 13:56:00,87.4,70.3,29.82,South,176,3.0,9.0,57,0.00,,,0.00,Wunderground v.1.15,2013-03-23 17:56:00,
2013-03-23 14:01:00,87.6,68.4,29.81,SSW,192,0.0,6.0,53,0.00,,,0.00,Wunderground v.1.15,2013-03-23 18:01:00,
2013-03-23 14:06:00,87.6,70.0,29.81,SW,229,0.0,6.0,56,0.00,,,0.00,Wunderground v.1.15,2013-03-23 18:06:00,
2013-03-23 14:11:00,87.4,69.3,29.81,SSW,211,4.0,7.0,55,0.00,,,0.00,Wunderground v.1.15,2013-03-23 18:11:00,
2013-03-23 14:16:00,87.2,68.0,29.80,South,175,3.0,10.0,53,0.00,,,0.00,Wunderground v.1.15,2013-03-23 18:16:00,
2013-03-23 14:21:00,87.0,69.4,29.80,SW,223,6.0,6.0,56,0.00,,,0.00,Wunderground v.1.15,2013-03-23 18:21:00,
2013-03-23 14:26:00,87.6,68.9,29.80,South,184,3.0,10.0,54,0.00,,,0.00,Wunderground v.1.15,2013-03-23 18:26:00,
2013-03-23 14:31:00,88.8,67.8,29.80,WSW,256,5.0,10.0,50,0.00,,,0.00,Wunderground v.1.15,2013-03-23 18:31:00,
2013-03-23 14:36:00,89.7,69.7,29.80,SW,216,4.0,13.0,52,0.00,,,0.00,Wunderground v.1.15,2013-03-23 18:36:00,
2013-03-23 14:41:00,89.7,68.6,29.80,WSW,245,6.0,10.0,50,0.00,,,0.00,Wunderground v.1.15,2013-03-23 18:41:00,
2013-03-23 14:46:00,89.0,69.1,29.79,WSW,237,0.0,10.0,52,0.00,,,0.00,Wunderground v.1.15,2013-03-23 18:46:00,
2013-03-23 14:51:00,88.8,68.9,29.79,SSW,207,5.0,10.0,52,0.00,,,0.00,Wunderground v.1.15,2013-03-23 18:51:00,
2013-03-23 14:57:00,88.6,68.2,29.79,WSW,248,3.0,10.0,51,0.00,,,0.00,Wunderground v.1.15,2013-03-23 18:57:00,
2013-03-23 15:02:00,89.0,68.5,29.78,SSE,160,2.0,4.0,51,0.00,,,0.00,Wunderground v.1.15,2013-03-23 19:02:00,
2013-03-23 15:07:00,89.3,68.2,29.78,SSW,209,3.0,6.0,50,0.00,,,0.00,Wunderground v.1.15,2013-03-23 19:07:00,
2013-03-23 15:12:00,89.9,68.8,29.78,SSW,195,4.0,4.0,50,0.00,,,0.00,Wunderground v.1.15,2013-03-23 19:12:00,
2013-03-23 15:17:00,90.1,68.4,29.78,SSW,195,3.0,9.0,49,0.00,,,0.00,Wunderground v.1.15,2013-03-23 19:17:00,
2013-03-23 15:22:00,90.1,69.5,29.78,SSW,211,4.0,7.0,51,0.00,,,0.00,Wunderground v.1.15,2013-03-23 19:22:00,
2013-03-23 15:27:00,89.9,69.3,29.78,SSW,205,0.0,10.0,51,0.00,,,0.00,Wunderground v.1.15,2013-03-23 19:27:00,
2013-03-23 15:32:00,88.8,68.9,29.76,South,181,1.0,4.0,52,0.00,,,0.00,Wunderground v.1.15,2013-03-23 19:32:00,
2013-03-23 15:37:00,88.2,68.9,29.76,SW,220,0.0,7.0,53,0.00,,,0.00,Wunderground v.1.15,2013-03-23 19:37:00,
2013-03-23 15:42:00,88.6,69.8,29.76,WSW,240,1.0,3.0,54,0.00,,,0.00,Wunderground v.1.15,2013-03-23 19:42:00,
2013-03-23 15:47:00,88.4,69.1,29.76,SW,236,1.0,6.0,53,0.00,,,0.00,Wunderground v.1.15,2013-03-23 19:47:00,
2013-03-23 15:52:00,87.4,69.8,29.76,South,181,0.0,4.0,56,0.00,,,0.00,Wunderground v.1.15,2013-03-23 19:52:00,
2013-03-23 15:57:00,86.7,70.7,29.76,SW,219,2.0,5.0,59,0.00,,,0.00,Wunderground v.1.15,2013-03-23 19:57:00,
2013-03-23 16:02:00,85.9,70.9,29.75,WSW,248,0.0,4.0,61,0.00,,,0.00,Wunderground v.1.15,2013-03-23 20:02:00,
2013-03-23 16:07:00,85.9,72.3,29.75,WSW,239,0.0,4.0,64,0.00,,,0.00,Wunderground v.1.15,2013-03-23 20:07:00,
2013-03-23 16:12:00,86.3,71.7,29.75,WSW,238,0.0,5.0,62,0.00,,,0.00,Wunderground v.1.15,2013-03-23 20:12:00,
2013-03-23 16:17:00,86.3,70.8,29.74,South,183,0.0,5.0,60,0.00,,,0.00,Wunderground v.1.15,2013-03-23 20:17:00,
2013-03-23 16:22:00,86.1,69.6,29.74,SSW,202,2.0,6.0,58,0.00,,,0.00,Wunderground v.1.15,2013-03-23 20:22:00,
2013-03-23 16:27:00,85.7,69.7,29.74,WSW,243,0.0,6.0,59,0.00,,,0.00,Wunderground v.1.15,2013-03-23 20:27:00,
2013-03-23 16:32:00,85.7,69.7,29.73,SW,222,0.0,5.0,59,0.00,,,0.00,Wunderground v.1.15,2013-03-23 20:32:00,
2013-03-23 16:37:00,85.7,69.2,29.73,SW,234,0.0,10.0,58,0.00,,,0.00,Wunderground v.1.15,2013-03-23 20:37:00,
2013-03-23 16:42:00,85.5,69.0,29.73,WSW,240,4.0,13.0,58,0.00,,,0.00,Wunderground v.1.15,2013-03-23 20:42:00,
2013-03-23 16:47:00,85.5,68.0,29.72,WSW,243,4.0,13.0,56,0.00,,,0.00,Wunderground v.1.15,2013-03-23 20:47:00,
2013-03-23 16:53:00,85.7,68.2,29.72,WSW,240,6.0,12.0,56,0.00,,,0.00,Wunderground v.1.15,2013-03-23 20:53:00,
2013-03-23 16:58:00,86.1,69.1,29.72,WSW,248,3.0,12.0,57,0.00,,,0.00,Wunderground v.1.15,2013-03-23 20:58:00,
2013-03-23 17:03:00,86.3,68.2,29.72,SW,231,1.0,12.0,55,0.00,,,0.00,Wunderground v.1.15,2013-03-23 21:03:00,
2013-03-23 17:08:00,86.3,68.8,29.72,South,188,1.0,12.0,56,0.00,,,0.00,Wunderground v.1.15,2013-03-23 21:08:00,
2013-03-23 17:13:00,86.3,68.8,29.72,WSW,240,0.0,11.0,56,0.00,,,0.00,Wunderground v.1.15,2013-03-23 21:13:00,
2013-03-23 17:18:00,86.5,68.4,29.72,SW,230,1.0,11.0,55,0.00,,,0.00,Wunderground v.1.15,2013-03-23 21:18:00,
2013-03-23 17:23:00,86.5,68.4,29.72,South,172,1.0,7.0,55,0.00,,,0.00,Wunderground v.1.15,2013-03-23 21:23:00,
2013-03-23 17:28:00,86.3,67.7,29.72,WSW,253,3.0,7.0,54,0.00,,,0.00,Wunderground v.1.15,2013-03-23 21:28:00,
2013-03-23 17:33:00,86.1,68.6,29.72,WSW,243,0.0,5.0,56,0.00,,,0.00,Wunderground v.1.15,2013-03-23 21:33:00,
2013-03-23 17:38:00,85.9,67.9,29.72,WSW,243,4.0,5.0,55,0.00,,,0.00,Wunderground v.1.15,2013-03-23 21:38:00,
2013-03-23 17:43:00,85.7,67.1,29.72,WSW,243,3.0,7.0,54,0.00,,,0.00,Wunderground v.1.15,2013-03-23 21:43:00,
2013-03-23 17:48:00,85.5,67.5,29.72,WSW,257,0.0,7.0,55,0.00,,,0.00,Wunderground v.1.15,2013-03-23 21:48:00,
2013-03-23 17:53:00,85.9,68.4,29.72,WSW,245,2.0,9.0,56,0.00,,,0.00,Wunderground v.1.15,2013-03-23 21:53:00,
2013-03-23 17:58:00,86.1,66.4,29.72,SW,234,8.0,15.0,52,0.00,,,0.00,Wunderground v.1.15,2013-03-23 21:58:00,
2013-03-23 18:03:00,85.9,66.2,29.73,WSW,255,0.0,6.0,52,0.00,,,0.00,Wunderground v.1.15,2013-03-23 22:03:00,
2013-03-23 18:08:00,85.7,65.5,29.73,WSW,239,4.0,10.0,51,0.00,,,0.00,Wunderground v.1.15,2013-03-23 22:08:00,
2013-03-23 18:13:00,85.5,65.3,29.73,WSW,246,0.0,7.0,51,0.00,,,0.00,Wunderground v.1.15,2013-03-23 22:13:00,
2013-03-23 18:18:00,85.3,64.6,29.74,WSW,250,5.0,10.0,50,0.00,,,0.00,Wunderground v.1.15,2013-03-23 22:18:00,
2013-03-23 18:23:00,85.1,64.9,29.74,WNW,282,0.0,3.0,51,0.00,,,0.00,Wunderground v.1.15,2013-03-23 22:23:00,
2013-03-23 18:28:00,84.9,64.8,29.74,West,276,0.0,4.0,51,0.00,,,0.00,Wunderground v.1.15,2013-03-23 22:28:00,
2013-03-23 18:33:00,84.9,64.8,29.74,West,262,0.0,6.0,51,0.00,,,0.00,Wunderground v.1.15,2013-03-23 22:33:00,
2013-03-23 18:38:00,84.7,65.1,29.74,West,269,0.0,6.0,52,0.00,,,0.00,Wunderground v.1.15,2013-03-23 22:38:00,
2013-03-23 18:43:00,84.5,64.4,29.74,WNW,300,4.0,14.0,51,0.00,,,0.00,Wunderground v.1.15,2013-03-23 22:43:00,
2013-03-23 18:48:00,84.3,64.8,29.75,WSW,243,4.0,14.0,52,0.00,,,0.00,Wunderground v.1.15,2013-03-23 22:48:00,
2013-03-23 18:53:00,84.3,64.8,29.75,WNW,298,0.0,4.0,52,0.00,,,0.00,Wunderground v.1.15,2013-03-23 22:53:00,
2013-03-23 18:58:00,84.1,64.6,29.75,West,262,0.0,14.0,52,0.00,,,0.00,Wunderground v.1.15,2013-03-23 22:58:00,
2013-03-23 19:04:00,84.0,64.5,29.76,WSW,248,0.0,9.0,52,0.00,,,0.00,Wunderground v.1.15,2013-03-23 23:04:00,
2013-03-23 19:09:00,83.6,64.7,29.76,WSW,241,0.0,9.0,53,0.00,,,0.00,Wunderground v.1.15,2013-03-23 23:09:00,
2013-03-23 19:14:00,83.2,64.8,29.76,West,266,0.0,7.0,54,0.00,,,0.00,Wunderground v.1.15,2013-03-23 23:14:00,
2013-03-23 19:19:00,83.0,64.6,29.76,WSW,243,0.0,7.0,54,0.00,,,0.00,Wunderground v.1.15,2013-03-23 23:19:00,
2013-03-23 19:24:00,82.6,64.8,29.76,WSW,247,0.0,6.0,55,0.00,,,0.00,Wunderground v.1.15,2013-03-23 23:24:00,
2013-03-23 19:29:00,82.2,64.4,29.77,WSW,254,2.0,6.0,55,0.00,,,0.00,Wunderground v.1.15,2013-03-23 23:29:00,
2013-03-23 19:34:00,82.0,64.8,29.77,WSW,237,0.0,9.0,56,0.00,,,0.00,Wunderground v.1.15,2013-03-23 23:34:00,
2013-03-23 19:39:00,81.8,64.6,29.77,West,261,0.0,10.0,56,0.00,,,0.00,Wunderground v.1.15,2013-03-23 23:39:00,
2013-03-23 19:44:00,81.4,64.7,29.78,West,276,2.0,2.0,57,0.00,,,0.00,Wunderground v.1.15,2013-03-23 23:44:00,
2013-03-23 19:49:00,81.2,64.5,29.78,West,259,0.0,2.0,57,0.00,,,0.00,Wunderground v.1.15,2013-03-23 23:49:00,
2013-03-23 19:54:00,80.9,64.7,29.78,WSW,255,0.0,0.0,58,0.00,,,0.00,Wunderground v.1.15,2013-03-23 23:54:00,
2013-03-23 19:59:00,80.5,64.9,29.78,West,266,0.0,1.0,59,0.00,,,0.00,Wunderground v.1.15,2013-03-23 23:59:00,
2013-03-23 20:04:00,80.3,64.7,29.78,West,262,0.0,2.0,59,0.00,,,0.00,Wunderground v.1.15,2013-03-24 00:04:00,
2013-03-23 20:10:00,79.9,64.8,29.78,West,268,0.0,0.0,60,0.00,,,0.00,Wunderground v.1.15,2013-03-24 00:10:00,
2013-03-23 20:15:00,79.6,65.0,29.78,WSW,258,0.0,0.0,61,0.00,,,0.00,Wunderground v.1.15,2013-03-24 00:15:00,
2013-03-23 20:20:00,79.4,64.8,29.78,West,266,0.0,0.0,61,0.00,,,0.00,Wunderground v.1.15,2013-03-24 00:20:00,
2013-03-23 20:25:00,79.0,64.4,29.78,West,264,0.0,0.0,61,0.00,,,0.00,Wunderground v.1.15,2013-03-24 00:25:00,
2013-03-23 20:30:00,78.6,64.5,29.78,WSW,245,0.0,0.0,62,0.00,,,0.00,Wunderground v.1.15,2013-03-24 00:30:00,
2013-03-23 20:35:00,78.5,64.4,29.78,WSW,248,0.0,0.0,62,0.00,,,0.00,Wunderground v.1.15,2013-03-24 00:35:00,
2013-03-23 20:40:00,78.3,64.7,29.78,WSW,248,0.0,0.0,63,0.00,,,0.00,Wunderground v.1.15,2013-03-24 00:40:00,
2013-03-23 20:45:00,77.9,64.7,29.79,WSW,252,0.0,0.0,64,0.00,,,0.00,Wunderground v.1.15,2013-03-24 00:45:00,
2013-03-23 20:50:00,77.6,64.9,29.79,WSW,252,0.0,0.0,65,0.00,,,0.00,Wunderground v.1.15,2013-03-24 00:50:00,
2013-03-23 20:55:00,77.4,64.7,29.79,WSW,252,0.0,0.0,65,0.00,,,0.00,Wunderground v.1.15,2013-03-24 00:55:00,
2013-03-23 21:00:00,77.0,64.3,29.80,WSW,252,0.0,0.0,65,0.00,,,0.00,Wunderground v.1.15,2013-03-24 01:00:00,
2013-03-23 21:05:00,76.7,64.5,29.80,West,268,0.0,0.0,66,0.00,,,0.00,Wunderground v.1.15,2013-03-24 01:05:00,
2013-03-23 21:11:00,76.5,64.7,29.80,West,268,0.0,0.0,67,0.00,,,0.00,Wunderground v.1.15,2013-03-24 01:11:00,
2013-03-23 21:16:00,76.1,64.3,29.81,West,268,0.0,0.0,67,0.00,,,0.00,Wunderground v.1.15,2013-03-24 01:16:00,
2013-03-23 21:21:00,76.0,64.7,29.81,West,268,0.0,0.0,68,0.00,,,0.00,Wunderground v.1.15,2013-03-24 01:21:00,
2013-03-23 21:26:00,75.8,64.5,29.81,West,268,0.0,0.0,68,0.00,,,0.00,Wunderground v.1.15,2013-03-24 01:26:00,
2013-03-23 21:31:00,75.6,64.3,29.81,West,268,0.0,0.0,68,0.00,,,0.00,Wunderground v.1.15,2013-03-24 01:31:00,
2013-03-23 21:36:00,75.4,64.5,29.81,West,269,0.0,0.0,69,0.00,,,0.00,Wunderground v.1.15,2013-03-24 01:36:00,
2013-03-23 21:41:00,75.3,64.4,29.81,West,267,0.0,0.0,69,0.00,,,0.00,Wunderground v.1.15,2013-03-24 01:41:00,
2013-03-23 21:46:00,75.3,64.4,29.82,WSW,254,0.0,0.0,69,0.00,,,0.00,Wunderground v.1.15,2013-03-24 01:46:00,
2013-03-23 21:52:00,75.1,64.2,29.82,WSW,253,0.0,0.0,69,0.00,,,0.00,Wunderground v.1.15,2013-03-24 01:52:00,
2013-03-23 21:57:00,75.1,64.2,29.82,WSW,249,0.0,0.0,69,0.00,,,0.00,Wunderground v.1.15,2013-03-24 01:57:00,
2013-03-23 22:02:00,74.9,64.5,29.83,WSW,251,0.0,0.0,70,0.00,,,0.00,Wunderground v.1.15,2013-03-24 02:02:00,
2013-03-23 22:07:00,74.9,64.5,29.83,WSW,257,0.0,0.0,70,0.00,,,0.00,Wunderground v.1.15,2013-03-24 02:07:00,
2013-03-23 22:12:00,74.9,64.5,29.83,WSW,252,0.0,2.0,70,0.00,,,0.00,Wunderground v.1.15,2013-03-24 02:12:00,
2013-03-23 22:17:00,74.7,64.3,29.83,WSW,250,0.0,2.0,70,0.00,,,0.00,Wunderground v.1.15,2013-03-24 02:17:00,
2013-03-23 22:22:00,74.7,64.3,29.83,WSW,254,0.0,0.0,70,0.00,,,0.00,Wunderground v.1.15,2013-03-24 02:22:00,
2013-03-23 22:27:00,74.7,64.3,29.83,West,262,0.0,2.0,70,0.00,,,0.00,Wunderground v.1.15,2013-03-24 02:27:00,
2013-03-23 22:32:00,74.6,64.2,29.83,West,262,0.0,0.0,70,0.00,,,0.00,Wunderground v.1.15,2013-03-24 02:32:00,
2013-03-23 22:37:00,74.4,64.0,29.83,West,262,0.0,0.0,70,0.00,,,0.00,Wunderground v.1.15,2013-03-24 02:37:00,
2013-03-23 22:42:00,74.2,64.2,29.83,West,262,0.0,0.0,71,0.00,,,0.00,Wunderground v.1.15,2013-03-24 02:42:00,
2013-03-23 22:47:00,74.0,64.0,29.84,West,262,0.0,0.0,71,0.00,,,0.00,Wunderground v.1.15,2013-03-24 02:47:00,
2013-03-23 22:52:00,73.9,64.3,29.84,West,262,0.0,0.0,72,0.00,,,0.00,Wunderground v.1.15,2013-03-24 02:52:00,
2013-03-23 22:57:00,73.5,63.9,29.84,West,262,0.0,0.0,72,0.00,,,0.00,Wunderground v.1.15,2013-03-24 02:57:00,
2013-03-23 23:02:00,73.3,64.1,29.84,West,262,0.0,0.0,73,0.00,,,0.00,Wunderground v.1.15,2013-03-24 03:02:00,
2013-03-23 23:07:00,73.0,64.2,29.84,West,262,0.0,0.0,74,0.00,,,0.00,Wunderground v.1.15,2013-03-24 03:07:00,
2013-03-23 23:12:00,72.8,64.0,29.84,West,262,0.0,0.0,74,0.00,,,0.00,Wunderground v.1.15,2013-03-24 03:12:00,
2013-03-23 23:17:00,72.5,64.1,29.84,West,262,0.0,0.0,75,0.00,,,0.00,Wunderground v.1.15,2013-03-24 03:17:00,
2013-03-23 23:22:00,72.3,63.9,29.84,West,262,0.0,0.0,75,0.00,,,0.00,Wunderground v.1.15,2013-03-24 03:22:00,
2013-03-23 23:27:00,72.0,64.0,29.84,West,262,0.0,0.0,76,0.00,,,0.00,Wunderground v.1.15,2013-03-24 03:27:00,
2013-03-23 23:32:00,71.8,63.8,29.84,West,262,0.0,0.0,76,0.00,,,0.00,Wunderground v.1.15,2013-03-24 03:32:00,
2013-03-23 23:37:00,71.6,64.0,29.84,West,262,0.0,0.0,77,0.00,,,0.00,Wunderground v.1.15,2013-03-24 03:37:00,
2013-03-23 23:42:00,71.6,64.4,29.84,West,262,0.0,0.0,78,0.00,,,0.00,Wunderground v.1.15,2013-03-24 03:42:00,
2013-03-23 23:47:00,71.5,64.3,29.83,West,262,0.0,0.0,78,0.00,,,0.00,Wunderground v.1.15,2013-03-24 03:47:00,
2013-03-23 23:52:00,71.3,64.4,29.83,West,262,0.0,0.0,79,0.00,,,0.00,Wunderground v.1.15,2013-03-24 03:52:00,
2013-03-23 23:57:00,71.1,64.3,29.83,West,262,0.0,0.0,79,0.00,,,0.00,Wunderground v.1.15,2013-03-24 03:57:00,